OBJECT B, 69675

Orbit data source: Space-Track

You're viewing an Uncataloged Satellite

Recently launched and/or uncataloged satellites may have evolving metadata. Metadata may include but not limited to: Owner, Maufacturer, Bus, Motor, and Mission.

OBJECT B, 69675 is a Chinese satellite in HEO that was launched on Tue, 23 Jun 2026 UTC launched from the Wenchang Satellite Launch Center (WSC). Unknown objects in Earth's orbit typically refer to objects detected orbiting the Earth but have not yet been identified or cataloged. These objects could be anything from previously untracked satellites, spent rocket stages, debris from satellite collisions, or even natural meteoroids temporarily captured by Earth's gravity.

Loading next visibility...
Identifier
69675, 2026-144B
Orbit
HEO
Country
Flag of CNCN / PRC
Related business
None
Manufacturer
Unknown
Mission
Spacecraft
Bus & Motor
Unknown
Mass
Unknown
Launch date (UTC)
2026-06-23 (2 days ago)
Launch vehicle
Unknown
Launch site
Wenchang Satellite Launch Center (WSC)
Object type
Unknown
Shape & HBR
Unknown
Radar Cross Section
RCS unknown

Expand to show TLE details & history
Last TLE update: 2 days ago

TLE from 2 days ago
0 OBJECT B
1 69675U 26144B   26174.32446913  .00084894 -16321-6  12531-3 0  9990
2 69675  19.5055 324.8183 7251415 178.8563 185.1182  2.38779558    24
Epoch: 2026-06-23T07:47Z
TLE epoch observation values (Epoch: 2026-06-23T07:47:14.132Z)
Latitude
0.00005°
Longitude
-63.49498°
Altitude
34,374.225 km
Speed
1.645 km/s
True Right ascension
21h 39m 14s
True Declination
0° 00' 00"
Sunlit
Object was in daylight at epoch
Visualization orbit readout
Latitude
Unknown
Longitude
Unknown
Altitude
Unknown
Speed
Unknown
Apparent Right ascension
Unknown
Apparent Declination
Unknown
Sunlit
N/A
Visualization observer readout
Local Sidereal Time
05:43:59
Azimuth
Unknown
Elevation
Unknown
Doppler factor
Unknown
Orbital elements
Apogee altitude
34,420.845 km
Perigee altitude
122.169 km
Semi-major axis
23,649.644 km
Eccentricity
0.72514
Inclination
19.5055°
RAAN
324.8183°
Arg. of periapsis
178.8563°
True anomaly
181.18467°
Mean anomaly
185.1182°
Eccentric anomaly
182.96739°
Mean motion
0.59677 °/min
Orbital period
603.25 mins
BSTAR
0.00012531
Loading maneuver chart data...
Computing Atmospheric mass density...
Loading historical data...
Loading historical data...
Loading historical data...
Loading historical data...
Loading historical data...
Loading historical data...
Loading historical data...
Other satellites on launch #144 in the year 2026 (2026-06-23 UTC)

Documentation

Showing up to 5 results
|